Zurück zum Katalog

STARLINK-37298

AktivKommunikationSSO
NORAD 68670·PAYLOAD·🇺🇸 United States

Gestartet Apr 11, 2026 von Vandenberg Space Force Base

Loading…

Nächste Überflüge (nächste 24 Stunden)

TLE

AktuellSource: CelesTrak SupGP

Epoche: Sep 14, 2026, 23:05 UTC

1 68670C 26077J   26257.96229167  .00068869  00000+0  21365-2 0  2575
2 68670  97.2846 127.9039 0002001  91.7555 216.7653 15.33424198    12

Verfolge STARLINK-37298 in Echtzeit mit AllMySat

Download on the App Store